Simultaneous Nadir Overpasses (SNOs) Predictions

Prediction of SNOs between GOES-16 and NPP Satellite Orbit:

Table of predicted SNOs for the next 14.0 days since TLE Epoch: 11/1/2019
Index Date Time (GOES-16) GOES-16 Lat,Lon NPP Lat,Lon Distance(km) Time Diff (sec)
1 11/02/2019 06:23:40 -0.00, -75.19 -0.06, -74.98 25.02 80
2 11/04/2019 18:26:50 0.00, -75.20 -0.10, -75.75 62.67 80
3 11/05/2019 18:10:45 0.00, -75.20 0.88, -71.22 454.36 80
4 11/07/2019 06:32:32 -0.00, -75.22 0.29, -76.49 144.85 80
5 11/08/2019 06:11:07 0.00, -75.23 -0.70, -71.95 372.58 80
6 11/09/2019 18:33:03 -0.00, -75.24 -0.45, -77.26 230.33 80
7 11/10/2019 18:16:58 -0.00, -75.25 0.54, -72.73 287.47 80
8 11/12/2019 06:38:45 0.00, -75.27 0.62, -78.00 310.72 80
9 11/13/2019 06:17:20 0.01, -75.29 -0.43, -73.48 207.28 80
10 11/14/2019 18:39:16 -0.01, -75.31 -0.77, -78.78 395.00 80
11 11/15/2019 18:20:30 -0.02, -75.32 0.22, -74.24 123.12 80




NCC Satellite Simultaneous Nadir Overpasses (SNOs) Prediction Service
